Flag for Germany Weather past 2 weeks in Goch, North Rhine-Westphalia, Germany

46 °F

Light rain. Fog.

Feels Like: 44 °F
Forecast: 46 / 55 °F
Wind: 6 mph from Southwest

Location: Niederrhein

Current Time: Nov 30, 2015 at 1:37:52 PM

Latest Report: Nov 30, 2015 at 12:50 PM

Visibility: 3 mi

Pressure: 29.98 "Hg

Humidity: 93%

Dew point: 45 °F

Location of GochLocation

Historic Weather in Goch — Graph


Goch temperature yesterday

Maximum temperature yesterday: 54 °F (at 3:20 PM)
Minimum temperature yesterday: 46 °F (at 4:50 AM)
Average temperature yesterday: 51 °F

Past Weeks' High & Low Weather Summary

High61 °F (Nov 17, 12:50 PM)100% (Nov 25, 8:50 AM)30.24 "Hg (Nov 25, 8:50 AM)
Low32 °F (Nov 23, 6:50 AM)59% (Nov 18, 6:50 AM)29.39 "Hg (Nov 21, 4:50 AM)
Average46 °F82%29.85 "Hg
* Reported Nov 15 12:20 PM — Nov 30 12:20 PM, Goch, Weather by CustomWeather, © 2015

Note: Actual official high and low records may vary slightly from our data, if they occured in-between our weather recording intervals... More about our weather records


Goch weather history for previous 24 hours

Time TempWeatherWind HumidityBarometerVisibility
12:20 PM
Mon, Nov 30
45 °FLight rain. Fog.6 mph93%30.01 "Hg3 mi
11:50 AM45 °FScattered clouds.6 mph87%30.04 "Hg6 mi
11:20 AM45 °FSunny.9 mph87%30.07 "Hg10 mi
10:50 AM46 °FPartly sunny.10 mph76%30.07 "HgN/A
10:20 AM46 °FScattered clouds.8 mph71%30.07 "HgN/A
9:50 AM46 °FSunny.8 mph71%30.07 "Hg10 mi
9:20 AM45 °FSunny.8 mph71%30.07 "Hg10 mi
8:50 AM46 °FClear.12 mph66%30.07 "Hg10 mi
7:50 AM46 °FClear.12 mph66%30.07 "Hg10 mi
7:20 AM46 °FClear.16 mph62%30.07 "Hg10 mi
6:50 AM46 °FClear.13 mph66%30.04 "Hg10 mi
6:20 AM46 °FClear.17 mph62%30.04 "Hg10 mi
5:50 AM48 °FClear.16 mph62%30.01 "Hg10 mi
5:20 AM48 °FPassing clouds.14 mph62%30.01 "HgN/A
11:50 PM
Sun, Nov 29
50 °FClear.16 mph82%29.83 "Hg10 mi
11:20 PM50 °FSprinkles. Passing clouds.22 mph88%29.83 "Hg4 mi
10:50 PM50 °FSprinkles. Passing clouds.20 mph88%29.80 "Hg6 mi
10:20 PM50 °FRain showers. Passing clouds.24 mph88%29.77 "Hg2 mi
9:50 PM52 °FRain showers. Passing clouds.23 mph94%29.74 "Hg2 mi
9:20 PM52 °FSprinkles. Passing clouds.29 mph94%29.74 "Hg4 mi
8:50 PM52 °FSprinkles. Passing clouds.25 mph94%29.71 "Hg4 mi
8:20 PM52 °FSprinkles. Passing clouds.24 mph94%29.71 "Hg4 mi
7:50 PM52 °FSprinkles. Passing clouds.26 mph88%29.71 "Hg4 mi
7:20 PM54 °FLight rain. Passing clouds.24 mph82%29.71 "HgN/A
6:50 PM54 °FPassing clouds.23 mph77%29.71 "HgN/A
6:20 PM54 °FPassing clouds.24 mph77%29.71 "HgN/A
5:50 PM54 °FPassing clouds.20 mph77%29.74 "HgN/A
5:20 PM54 °FPartly sunny.23 mph77%29.74 "HgN/A
4:50 PM54 °FSprinkles. Partly sunny.21 mph77%29.74 "HgN/A
4:20 PM54 °FSprinkles. Partly sunny.20 mph77%29.74 "HgN/A
3:50 PM54 °FSprinkles. Partly sunny.22 mph77%29.74 "HgN/A
3:20 PM54 °FSprinkles. Partly sunny.21 mph77%29.74 "HgN/A
2:50 PM52 °FSprinkles. Partly sunny.18 mph88%29.71 "HgN/A
2:20 PM52 °FSprinkles. Partly sunny.21 mph88%29.74 "HgN/A
1:50 PM50 °FSprinkles. Partly sunny.15 mph94%29.74 "Hg5 mi
1:20 PM50 °FSprinkles. Partly sunny.16 mph88%29.74 "HgN/A
Weather by CustomWeather, © 2015

See weather overviewHow to use our weather pages